• In Uzbekistan
  • List of Countries
  • For 7 days
  • Water Temperature
  • Satellite Maps
  • Weather Map
  • Weather Widgets
  • user-avatar
    Login

    Hourly Weather Kitzbuhel

    Today, 20 January, Sunday

    Time Temperature Precipitation Wind Pressure Humidity
    00:00 -9°C° 0 mm 2 mps 672 mmHg 72%
    01:00 -8°C° 0 mm 2 mps 672 mmHg 68%
    02:00 -8°C° 0 mm 2 mps 671 mmHg 69%
    03:00 -9°C° 0 mm 2 mps 671 mmHg 69%
    04:00 -9°C° 0 mm 2 mps 671 mmHg 69%
    05:00 -9°C° 0 mm 2 mps 671 mmHg 69%
    06:00 -9°C° 0 mm 2 mps 671 mmHg 68%
    07:00 -9°C° 0 mm 2 mps 671 mmHg 68%
    08:00 -7°C° 0 mm 2 mps 671 mmHg 70%
    09:00 -4°C° 0 mm 1 mps 672 mmHg 72%
    10:00 -3°C° 0 mm 1 mps 672 mmHg 74%
    11:00 -1°C° 0 mm 1 mps 672 mmHg 74%
    12:00 0°C° 0 mm 1 mps 672 mmHg 73%
    13:00 0°C° 0 mm 0 mps 672 mmHg 73%
    14:00 -1°C° 0 mm 0 mps 672 mmHg 77%
    15:00 -2°C° 0 mm 0 mps 672 mmHg 81%
    16:00 -3°C° 0 mm 0 mps 672 mmHg 85%
    17:00 -3°C° 0 mm 1 mps 672 mmHg 84%
    18:00 -4°C° 0 mm 1 mps 672 mmHg 83%
    19:00 -6°C° 0 mm 1 mps 672 mmHg 82%
    20:00 -6°C° 0 mm 1 mps 673 mmHg 80%
    21:00 -6°C° 0 mm 1 mps 673 mmHg 78%
    22:00 -7°C° 0 mm 1 mps 674 mmHg 76%
    23:00 -7°C° 0 mm 1 mps 674 mmHg 77%

    Tomorrow, 21 January, Monday

    Time Temperature Precipitation Wind Pressure Humidity
    00:00 -7°C° 0 mm 1 mps 674 mmHg 77%
    01:00 -7°C° 0 mm 1 mps 674 mmHg 77%
    02:00 -7°C° 0 mm 1 mps 674 mmHg 77%
    03:00 -7°C° 0 mm 1 mps 674 mmHg 78%
    04:00 -7°C° 0 mm 1 mps 674 mmHg 79%
    05:00 -7°C° 0 mm 1 mps 674 mmHg 79%
    06:00 -8°C° 0 mm 1 mps 675 mmHg 79%
    07:00 -8°C° 0 mm 1 mps 675 mmHg 80%
    08:00 -6°C° 0 mm 1 mps 675 mmHg 81%
    09:00 -4°C° 0 mm 1 mps 676 mmHg 82%
    10:00 -4°C° 0 mm 0 mps 676 mmHg 83%
    11:00 -3°C° 0 mm 0 mps 676 mmHg 83%
    12:00 -1°C° 0 mm 1 mps 676 mmHg 84%
    13:00 0°C° 0 mm 1 mps 675 mmHg 84%
    14:00 -1°C° 0 mm 1 mps 675 mmHg 87%
    15:00 -1°C° 0 mm 1 mps 675 mmHg 90%
    16:00 -2°C° 0 mm 1 mps 675 mmHg 93%
    17:00 -3°C° 0 mm 1 mps 675 mmHg 93%
    18:00 -6°C° 0 mm 1 mps 675 mmHg 93%
    19:00 -7°C° 0 mm 1 mps 675 mmHg 93%
    20:00 -7°C° 0 mm 1 mps 674 mmHg 91%
    21:00 -7°C° 0 mm 1 mps 674 mmHg 89%
    22:00 -8°C° 0 mm 1 mps 674 mmHg 87%
    23:00 -8°C° 0 mm 1 mps 674 mmHg 85%

    Day after tomorrow, 22 January, Tuesday

    Time Temperature Precipitation Wind Pressure Humidity
    00:00 -8°C° 0 mm 1 mps 674 mmHg 84%
    01:00 -8°C° 0 mm 1 mps 674 mmHg 83%
    02:00 -8°C° 0 mm 1 mps 673 mmHg 82%
    03:00 -9°C° 0 mm 1 mps 673 mmHg 81%
    04:00 -9°C° 0 mm 1 mps 672 mmHg 80%
    05:00 -10°C° 0 mm 2 mps 672 mmHg 78%
    06:00 -10°C° 0 mm 2 mps 671 mmHg 77%
    07:00 -10°C° 0 mm 2 mps 671 mmHg 76%
    08:00 -7°C° 0 mm 1 mps 671 mmHg 76%
    09:00 -6°C° 0 mm 1 mps 670 mmHg 77%
    10:00 -3°C° 0 mm 1 mps 670 mmHg 77%
    11:00 -2°C° 0 mm 1 mps 670 mmHg 75%
    12:00 0°C° 0 mm 1 mps 669 mmHg 73%
    13:00 +1°C° 0 mm 1 mps 668 mmHg 71%
    14:00 0°C° 0 mm 1 mps 667 mmHg 76%
    15:00 -1°C° 0 mm 1 mps 666 mmHg 81%
    16:00 -2°C° 0 mm 1 mps 665 mmHg 85%
    17:00 -3°C° 0 mm 1 mps 665 mmHg 83%
    18:00 -7°C° 0 mm 2 mps 664 mmHg 81%
    19:00 -8°C° 0 mm 2 mps 664 mmHg 78%
    20:00 -8°C° 0 mm 2 mps 663 mmHg 76%
    21:00 -9°C° 0 mm 2 mps 663 mmHg 73%
    22:00 -9°C° 0 mm 2 mps 663 mmHg 71%
    23:00 -9°C° 0 mm 2 mps 662 mmHg 71%

    23 January, Wednesday

    Time Temperature Precipitation Wind Pressure Humidity
    00:00 -10°C° 0 mm 2 mps 662 mmHg 72%
    01:00 -10°C° 0 mm 2 mps 661 mmHg 72%
    02:00 -10°C° 0 mm 2 mps 661 mmHg 72%
    03:00 -10°C° 0 mm 2 mps 661 mmHg 72%
    04:00 -10°C° 0 mm 2 mps 661 mmHg 71%
    05:00 -10°C° 0 mm 2 mps 660 mmHg 70%
    06:00 -10°C° 0 mm 2 mps 660 mmHg 69%
    07:00 -10°C° 0 mm 2 mps 660 mmHg 68%
    08:00 -8°C° 0 mm 1 mps 661 mmHg 70%
    09:00 -6°C° 0 mm 1 mps 661 mmHg 72%
    10:00 -4°C° 0 mm 1 mps 662 mmHg 74%
    11:00 -3°C° 0 mm 1 mps 662 mmHg 73%
    12:00 -2°C° 0 mm 1 mps 662 mmHg 73%
    13:00 -1°C° 0 mm 1 mps 662 mmHg 73%
    14:00 -2°C° 0 mm 1 mps 662 mmHg 78%
    15:00 -3°C° 0 mm 1 mps 662 mmHg 84%
    16:00 -3°C° 0 mm 1 mps 662 mmHg 90%
    17:00 -6°C° 0 mm 1 mps 662 mmHg 90%
    18:00 -7°C° 0 mm 1 mps 662 mmHg 90%
    19:00 -9°C° 0 mm 1 mps 663 mmHg 91%
    20:00 -9°C° 0 mm 1 mps 663 mmHg 89%
    21:00 -9°C° 0 mm 1 mps 664 mmHg 88%
    22:00 -9°C° 0 mm 1 mps 665 mmHg 86%
    23:00 -9°C° 0 mm 1 mps 665 mmHg 85%

    24 January, Thursday

    Time Temperature Precipitation Wind Pressure Humidity
    00:00 -10°C° 0 mm 1 mps 665 mmHg 83%
    01:00 -10°C° 0 mm 1 mps 665 mmHg 82%
    02:00 -10°C° 0 mm 1 mps 665 mmHg 82%
    03:00 -10°C° 0 mm 1 mps 665 mmHg 81%
    04:00 -11°C° 0 mm 1 mps 665 mmHg 81%
    05:00 -11°C° 0 mm 1 mps 665 mmHg 81%
    06:00 -11°C° 0 mm 1 mps 666 mmHg 82%
    07:00 -11°C° 0 mm 1 mps 666 mmHg 82%
    08:00 -9°C° 0 mm 1 mps 666 mmHg 83%
    09:00 -8°C° 0 mm 0 mps 667 mmHg 84%
    10:00 -6°C° 0 mm 0 mps 667 mmHg 84%
    11:00 -5°C° 0 mm 0 mps 667 mmHg 84%
    12:00 -3°C° 0 mm 1 mps 667 mmHg 84%
    13:00 -3°C° 0 mm 1 mps 666 mmHg 84%
    14:00 -3°C° 0 mm 1 mps 666 mmHg 86%
    15:00 -4°C° 0 mm 1 mps 666 mmHg 88%
    16:00 -4°C° 0 mm 1 mps 666 mmHg 90%
    17:00 -6°C° 0 mm 0 mps 666 mmHg 91%
    18:00 -7°C° 0 mm 0 mps 667 mmHg 92%
    19:00 -8°C° 0 mm 0 mps 667 mmHg 93%
    20:00 -9°C° 0 mm 0 mps 667 mmHg 93%
    21:00 -10°C° 0 mm 0 mps 667 mmHg 93%
    22:00 -11°C° 0 mm 0 mps 667 mmHg 93%
    23:00 -11°C° 0 mm 0 mps 668 mmHg 92%

    25 January, Friday

    Time Temperature Precipitation Wind Pressure Humidity
    00:00 -11°C° 0 mm 1 mps 668 mmHg 92%
    01:00 -11°C° 0 mm 1 mps 668 mmHg 91%
    02:00 -11°C° 0 mm 1 mps 668 mmHg 91%
    03:00 -11°C° 0 mm 1 mps 668 mmHg 91%
    04:00 -11°C° 0 mm 1 mps 668 mmHg 91%
    05:00 -11°C° 0.1 mm 1 mps 668 mmHg 91%
    06:00 -10°C° 0.1 mm 1 mps 669 mmHg 91%
    07:00 -10°C° 0.1 mm 1 mps 669 mmHg 91%
    08:00 -9°C° 0.1 mm 1 mps 670 mmHg 91%
    09:00 -8°C° 0.1 mm 1 mps 671 mmHg 90%
    10:00 -7°C° 0.1 mm 1 mps 671 mmHg 90%
    11:00 -6°C° 0.1 mm 1 mps 671 mmHg 90%
    12:00 -6°C° 0.1 mm 1 mps 671 mmHg 89%
    13:00 -4°C° 0.1 mm 1 mps 671 mmHg 89%
    14:00 -4°C° 0.1 mm 1 mps 672 mmHg 90%
    15:00 -4°C° 0.1 mm 1 mps 672 mmHg 91%
    16:00 -4°C° 0.1 mm 1 mps 672 mmHg 92%
    17:00 -6°C° 0.1 mm 1 mps 673 mmHg 93%
    18:00 -6°C° 0.1 mm 1 mps 673 mmHg 95%
    19:00 -7°C° 0.1 mm 1 mps 674 mmHg 96%
    20:00 -7°C° 0.1 mm 1 mps 674 mmHg 96%
    21:00 -7°C° 0.1 mm 1 mps 675 mmHg 96%
    22:00 -7°C° 0.1 mm 1 mps 675 mmHg 95%
    23:00 -8°C° 0.1 mm 1 mps 675 mmHg 95%
    Show more